Weather in Vladimirskaya

Russia / Krasnodar Krai     44°32′44″N   40°47′17″E
temp.,
°C
wind,
m/s
gust,
m/s
humid.,
%
clouds,
%
prec.,
mm/h
press.,
hPa
HPBL,
m
4 december, sat
sat400:00+5s336375 0.0 101928
03:00+5s3456100 0.0 101940
06:00+5s455727 0.0 101859
09:00+6s465613 0.0 101881
12:00+13sse3440100 0.0 1015195
15:00+13se114644 0.0 101410
18:00+9sse335399 0.0 101416
21:00+8s3362100 0.0 101335
5 december, sun
sun500:00+7s3358100 0.0 101229
03:00+8s2254100 0.0 101215
06:00+8sse1153100 0.0 101210
09:00+8ssw1154100 0.0 101310
12:00+11se1145100 0.0 1013195
15:00+12se115096 0.0 101358
18:00+9sse225321 0.0 101413
21:00+8s336174 0.0 101541
6 december, mon
mon600:00+7s226941 0.0 101625
03:00+7sse117495 0.0 101710
06:00+6sse447618 0.0 101853
09:00+7sse35667 0.0 101885
12:00+13sse224752 0.0 1017237
15:00+14e114983 0.0 101712
18:00+10sse225481 0.0 101814
21:00+8sse44640 0.0 101848
7 december, tue
tue700:00+8sse44655 0.0 101852
03:00+7sse44635 0.0 101851
06:00+7sse45625 0.0 101756
09:00+8sse35565 0.0 101777
12:00+15se343815 0.0 1013220
15:00+15e234259 0.0 101146
18:00+10se335028 0.0 101026
21:00+9sse335353 0.0 100835
8 december, wed
wed800:00+8sse334855 0.0 100721
03:00+8ssw22491 0.0 100810
06:00+7s22487 0.0 100711
09:00+8se22476 0.0 100812
12:00+13ne124018 0.0 1007250
15:00+12n1251100 0.0 100743
18:00+8ssw2258100 0.0 100910
21:00+8sse2258100 0.0 101012